DHK026 EGNX-KMIA

Flight info

Callsign DHK026
Flight time N/A
Altitude 24000
Route TNT Q4 WAL/N0467F340 L10 PENIL M144 BAGSO DCT RINUS DCT MALOT/M082F360 DCT 54N020W 54N030W 54N040W 53N050W DCT RIKAL/N0482F380 N572A TOPPS DCT HTO DCT BEADS DCT SWL DCT SKARP/N0473F400 AR22 HOAGG BNFSH3
Aircraft B77L/H-SDE1E2E3FGHIJ2J3J4J5M1RWXY/LB1D1

Departure

Time 2026-05-04 23:16
Airport East Midlands Airport (EGNX)

Arrival

Time N/A
Airport Miami International Airport (KMIA)
Time Latitude Longitude Altitude Speed Heading
2026-05-04 23:02 52.82742 -1.35113 305 ft 0 kts 180°
2026-05-04 23:03 52.82746 -1.35113 305 ft 3 kts 179°
2026-05-04 23:03 52.82772 -1.35115 305 ft 4 kts 177°
2026-05-04 23:03 52.82795 -1.35117 305 ft 4 kts 167°
2026-05-04 23:04 52.82814 -1.35130 305 ft 4 kts 124°
2026-05-04 23:04 52.82821 -1.35165 304 ft 4 kts 90°
2026-05-04 23:04 52.82821 -1.35201 303 ft 1 kts 88°
2026-05-04 23:04 52.82820 -1.35207 303 ft 0 kts 88°
2026-05-04 23:07 52.82821 -1.35193 304 ft 6 kts 88°
2026-05-04 23:07 52.82822 -1.35099 306 ft 8 kts 88°
2026-05-04 23:08 52.82824 -1.35002 307 ft 8 kts 88°
2026-05-04 23:08 52.82826 -1.34904 307 ft 8 kts 88°
2026-05-04 23:08 52.82827 -1.34808 305 ft 8 kts 88°
2026-05-04 23:08 52.82829 -1.34711 305 ft 8 kts 88°
2026-05-04 23:09 52.82831 -1.34614 307 ft 8 kts 88°
2026-05-04 23:09 52.82833 -1.34516 308 ft 8 kts 88°
2026-05-04 23:09 52.82857 -1.34432 307 ft 9 kts 36°
2026-05-04 23:09 52.82902 -1.34373 311 ft 9 kts 65°
2026-05-04 23:10 52.82907 -1.34265 308 ft 11 kts 90°
2026-05-04 23:10 52.82908 -1.34119 307 ft 15 kts 89°
2026-05-04 23:10 52.82912 -1.33911 309 ft 20 kts 88°
2026-05-04 23:10 52.82917 -1.33683 311 ft 20 kts 89°
2026-05-04 23:11 52.82920 -1.33454 312 ft 20 kts 88°
2026-05-04 23:11 52.82924 -1.33226 307 ft 21 kts 88°
2026-05-04 23:11 52.82928 -1.32988 306 ft 21 kts 88°
2026-05-04 23:11 52.82933 -1.32750 308 ft 21 kts 88°
2026-05-04 23:12 52.82937 -1.32512 305 ft 21 kts 88°
2026-05-04 23:12 52.82942 -1.32274 305 ft 21 kts 88°
2026-05-04 23:12 52.82946 -1.32036 306 ft 21 kts 88°
2026-05-04 23:12 52.82950 -1.31799 308 ft 21 kts 88°
2026-05-04 23:13 52.82954 -1.31587 306 ft 21 kts 88°
2026-05-04 23:13 52.82955 -1.31498 308 ft 20 kts 88°
2026-05-04 23:14 52.82960 -1.31245 308 ft 25 kts 88°
2026-05-04 23:14 52.82965 -1.30951 308 ft 25 kts 88°
2026-05-04 23:14 52.82966 -1.30887 308 ft 0 kts 88°
2026-05-04 23:14 52.82968 -1.30830 306 ft 14 kts 86°
2026-05-04 23:15 52.83021 -1.30695 308 ft 15 kts 27°
2026-05-04 23:15 52.83121 -1.30694 308 ft 15 kts 334°
2026-05-04 23:15 52.83138 -1.30795 306 ft 9 kts 264°
2026-05-04 23:15 52.83132 -1.31065 309 ft 61 kts 268°
2026-05-04 23:16 52.83105 -1.32342 309 ft 160 kts 268°
2026-05-04 23:16 52.83074 -1.34413 1051 ft 181 kts 269°
2026-05-04 23:16 52.83063 -1.36498 2360 ft 184 kts 272°
2026-05-04 23:16 52.83081 -1.38674 3025 ft 198 kts 280°
2026-05-04 23:17 52.83642 -1.40869 3238 ft 221 kts 303°
2026-05-04 23:17 52.84480 -1.43204 3579 ft 247 kts 301°
2026-05-04 23:17 52.85326 -1.45758 4373 ft 258 kts 300°
2026-05-04 23:17 52.86186 -1.48422 5243 ft 262 kts 299°
2026-05-04 23:18 52.87044 -1.51108 5900 ft 266 kts 298°
2026-05-04 23:18 52.87947 -1.53778 6045 ft 267 kts 305°
2026-05-04 23:18 52.89178 -1.56080 6052 ft 268 kts 320°
2026-05-04 23:18 52.90694 -1.57852 6052 ft 267 kts 330°
2026-05-04 23:19 52.92338 -1.59190 6048 ft 266 kts 338°
2026-05-04 23:19 52.94091 -1.60285 6050 ft 265 kts 340°
2026-05-04 23:19 52.95835 -1.61299 6047 ft 266 kts 340°
2026-05-04 23:19 52.97556 -1.62306 6051 ft 266 kts 340°
2026-05-04 23:20 52.99298 -1.63337 6048 ft 266 kts 340°
2026-05-04 23:20 53.01036 -1.64372 6053 ft 266 kts 339°
2026-05-04 23:20 53.02781 -1.65420 6060 ft 267 kts 339°
2026-05-04 23:20 53.04473 -1.66616 6041 ft 261 kts 324°
2026-05-04 23:21 53.05643 -1.68891 6277 ft 263 kts 295°
2026-05-04 23:21 53.06273 -1.71779 7115 ft 268 kts 287°
2026-05-04 23:21 53.06792 -1.74781 8002 ft 272 kts 285°
2026-05-04 23:21 53.07295 -1.77822 8930 ft 275 kts 285°
2026-05-04 23:22 53.07802 -1.80907 9840 ft 278 kts 285°
2026-05-04 23:22 53.08320 -1.84040 10619 ft 286 kts 285°
2026-05-04 23:22 53.08872 -1.87368 10889 ft 312 kts 285°
2026-05-04 23:22 53.09476 -1.90998 11124 ft 339 kts 285°
2026-05-04 23:23 53.10130 -1.94907 11545 ft 358 kts 285°
2026-05-04 23:23 53.10807 -1.98953 12324 ft 367 kts 285°
2026-05-04 23:23 53.11476 -2.02947 13196 ft 371 kts 284°
2026-05-04 23:23 53.12174 -2.07113 14101 ft 375 kts 284°
2026-05-04 23:24 53.12876 -2.11320 14926 ft 379 kts 284°
2026-05-04 23:24 53.13577 -2.15538 15704 ft 384 kts 284°
2026-05-04 23:24 53.14368 -2.19819 16457 ft 390 kts 289°
2026-05-04 23:24 53.15454 -2.24002 17232 ft 396 kts 295°
2026-05-04 23:25 53.16696 -2.28121 17983 ft 400 kts 295°
2026-05-04 23:25 53.17963 -2.32297 18685 ft 405 kts 295°
2026-05-04 23:25 53.19239 -2.36520 19347 ft 410 kts 295°
2026-05-04 23:25 53.20522 -2.40798 20003 ft 414 kts 295°
2026-05-04 23:26 53.21809 -2.45114 20659 ft 418 kts 295°
2026-05-04 23:26 53.23088 -2.49430 21270 ft 423 kts 295°
2026-05-04 23:26 53.24403 -2.53881 21794 ft 430 kts 295°
2026-05-04 23:26 53.25733 -2.58390 22377 ft 436 kts 296°
2026-05-04 23:27 53.27077 -2.62954 22972 ft 440 kts 296°
2026-05-04 23:27 53.28436 -2.67574 23581 ft 445 kts 296°
2026-05-04 23:27 53.29801 -2.72233 24101 ft 449 kts 296°
2026-05-04 23:27 53.31045 -2.77051 24637 ft 452 kts 291°
2026-05-04 23:28 53.32159 -2.81978 25153 ft 456 kts 291°
2026-05-04 23:28 53.33269 -2.86970 25672 ft 459 kts 291°
2026-05-04 23:28 53.34385 -2.91980 26194 ft 462 kts 291°
2026-05-04 23:28 53.35520 -2.97040 26702 ft 465 kts 291°
2026-05-04 23:29 53.36629 -3.01956 27178 ft 469 kts 291°
2026-05-04 23:29 53.37784 -3.07081 27671 ft 472 kts 291°
2026-05-04 23:29 53.39085 -3.12126 28131 ft 475 kts 297°
2026-05-04 23:29 53.40674 -3.16988 28596 ft 477 kts 303°
2026-05-04 23:30 53.42557 -3.21587 29052 ft 479 kts 307°
2026-05-04 23:30 53.44517 -3.26106 29482 ft 482 kts 307°
2026-05-04 23:30 53.46504 -3.30672 29943 ft 483 kts 307°
2026-05-04 23:30 53.48470 -3.35232 30485 ft 482 kts 307°
2026-05-04 23:31 53.50414 -3.39793 31044 ft 479 kts 307°
2026-05-04 23:31 53.52345 -3.44358 31579 ft 477 kts 307°
2026-05-04 23:31 53.54257 -3.48897 32080 ft 476 kts 307°
2026-05-04 23:31 53.56146 -3.53389 32545 ft 475 kts 307°
2026-05-04 23:32 53.58054 -3.57930 33009 ft 474 kts 307°
2026-05-04 23:32 53.59826 -3.62592 33401 ft 474 kts 298°
2026-05-04 23:32 53.61108 -3.67712 33812 ft 475 kts 289°
2026-05-04 23:32 53.61931 -3.73091 34252 ft 474 kts 281°
2026-05-04 23:33 53.62260 -3.78622 34606 ft 475 kts 274°
2026-05-04 23:33 53.62417 -3.84184 34921 ft 475 kts 274°
2026-05-04 23:33 53.62598 -3.89737 35232 ft 475 kts 275°
2026-05-04 23:33 53.62819 -3.95280 35574 ft 474 kts 275°
2026-05-04 23:34 53.63044 -4.00653 35891 ft 473 kts 275°
2026-05-04 23:34 53.63266 -4.06178 36212 ft 473 kts 274°
2026-05-04 23:34 53.63480 -4.11703 36508 ft 472 kts 274°
2026-05-04 23:34 53.63685 -4.17148 36811 ft 472 kts 274°
2026-05-04 23:35 53.63890 -4.22655 37150 ft 470 kts 274°
2026-05-04 23:35 53.64092 -4.28134 37520 ft 467 kts 274°
2026-05-04 23:35 53.64292 -4.33610 37805 ft 467 kts 274°
2026-05-04 23:35 53.64488 -4.39091 37957 ft 470 kts 274°
2026-05-04 23:36 53.64873 -4.50159 38037 ft 477 kts 274°
2026-05-04 23:36 53.65255 -4.61349 38090 ft 477 kts 274°
2026-05-04 23:37 53.65625 -4.72433 38077 ft 471 kts 274°
2026-05-04 23:37 53.65983 -4.83419 38078 ft 468 kts 274°